| time (UTC) | temp F | wind direction | speed MPH | gust MPH | rain 1hr in | rain 24hr in | rain mn in | humidity % | barometer mb |
| 20260510082003 | 43 | 305 | 5.0 | 10.0 | 0.00 | 0.01 | 0.00 | 85 | 1020.4 |
| 20260510081217 | 43 | 311 | 5.0 | 16.0 | 0.00 | 0.01 | 0.00 | 86 | 1020.4 |
| 20260510080008 | 42 | 317 | 4.0 | 13.0 | 0.00 | 0.01 | 0.00 | 87 | 1020.3 |
| 20260510075217 | 42 | 311 | 5.0 | 12.0 | 0.00 | 0.01 | 0.00 | 88 | 1020.3 |
| 20260510074008 | 42 | 303 | 5.0 | 11.0 | 0.00 | 0.01 | 0.00 | 88 | 1020.5 |
| 20260510073003 | 42 | 314 | 5.0 | 13.0 | 0.00 | 0.01 | 0.00 | 90 | 1020.2 |
| 20260510072003 | 42 | 321 | 5.0 | 12.0 | 0.00 | 0.01 | 0.00 | 90 | 1020.2 |
| 20260510071008 | 42 | 299 | 5.0 | 10.0 | 0.00 | 0.01 | 0.00 | 91 | 1020.4 |
| 20260510070008 | 42 | 300 | 4.0 | 10.0 | 0.00 | 0.01 | 0.00 | 91 | 1020.2 |
| 20260510065223 | 42 | 296 | 4.0 | 12.0 | 0.00 | 0.01 | 0.00 | 91 | 1020.3 |
| 20260510064003 | 42 | 309 | 5.0 | 10.0 | 0.00 | 0.01 | 0.00 | 93 | 1020.3 |
| 20260510063008 | 42 | 310 | 5.0 | 10.0 | 0.00 | 0.01 | 0.00 | 94 | 1020.2 |
| 20260510062216 | 42 | 304 | 5.0 | 11.0 | 0.00 | 0.01 | 0.00 | 94 | 1020.3 |
| 20260510061008 | 42 | 304 | 5.0 | 11.0 | 0.00 | 0.01 | 0.00 | 94 | 1020.4 |
| 20260510060008 | 42 | 294 | 5.0 | 12.0 | 0.00 | 0.01 | 0.00 | 95 | 1020.2 |
| 20260510055003 | 42 | 303 | 5.0 | 11.0 | 0.00 | 0.01 | 0.00 | 96 | 1019.9 |
| 20260510054008 | 42 | 309 | 5.0 | 12.0 | 0.00 | 0.01 | 0.00 | 96 | 1020.1 |
| 20260510053003 | 42 | 299 | 4.0 | 11.0 | 0.00 | 0.01 | 0.00 | 96 | 1020.1 |
| 20260510052222 | 42 | 305 | 5.0 | 11.0 | 0.00 | 0.01 | 0.00 | 96 | 1020.1 |
| 20260510051008 | 42 | 319 | 6.0 | 13.0 | 0.00 | 0.01 | 0.00 | 96 | 1020.1 |
| 20260510050003 | 42 | 307 | 5.0 | 12.0 | 0.00 | 0.01 | 0.00 | 97 | 1020.0 |
| 20260510045008 | 42 | 298 | 5.0 | 11.0 | 0.00 | 0.01 | 0.00 | 97 | 1020.1 |
| 20260510044218 | 42 | 304 | 5.0 | 12.0 | 0.00 | 0.01 | 0.00 | 97 | 1020.2 |
| 20260510043003 | 42 | 305 | 5.0 | 12.0 | 0.00 | 0.01 | 0.00 | 97 | 1019.9 |
| 20260510042003 | 42 | 314 | 6.0 | 14.0 | 0.00 | 0.01 | 0.00 | 97 | 1019.9 |
| 20260510041217 | 42 | 317 | 7.0 | 16.0 | 0.00 | 0.01 | 0.00 | 97 | 1019.8 |
| 20260510040008 | 42 | 303 | 5.0 | 10.0 | 0.00 | 0.01 | 0.00 | 98 | 1020.2 |
| 20260510035008 | 42 | 299 | 5.0 | 12.0 | 0.00 | 0.01 | 0.00 | 98 | 1020.4 |
| 20260510034008 | 42 | 307 | 5.0 | 13.0 | 0.00 | 0.01 | 0.00 | 98 | 1020.4 |
| 20260510033003 | 42 | 303 | 5.0 | 11.0 | 0.00 | 0.01 | 0.00 | 98 | 1020.5 |
| 20260510032003 | 42 | 303 | 4.0 | 9.0 | 0.00 | 0.01 | 0.00 | 98 | 1020.7 |
| 20260510031003 | 42 | 299 | 4.0 | 10.0 | 0.00 | 0.01 | 0.00 | 98 | 1020.7 |
| 20260510030003 | 42 | 315 | 5.0 | 12.0 | 0.00 | 0.01 | 0.00 | 98 | 1020.7 |
| 20260510025003 | 42 | 319 | 6.0 | 13.0 | 0.00 | 0.01 | 0.00 | 98 | 1020.6 |
| 20260510024223 | 42 | 319 | 7.0 | 14.0 | 0.00 | 0.01 | 0.00 | 98 | 1020.7 |
| 20260510023008 | 43 | 302 | 5.0 | 10.0 | 0.00 | 0.01 | 0.00 | 98 | 1020.7 |
| 20260510022008 | 43 | 289 | 5.0 | 11.0 | 0.00 | 0.01 | 0.00 | 98 | 1020.7 |
| 20260510021003 | 43 | 304 | 5.0 | 10.0 | 0.00 | 0.01 | 0.00 | 98 | 1020.6 |
| 20260510020223 | 43 | 292 | 5.0 | 10.0 | 0.00 | 0.01 | 0.00 | 98 | 1020.6 |
| 20260510015004 | 43 | 320 | 6.0 | 14.0 | 0.00 | 0.01 | 0.00 | 98 | 1020.6 |
| 20260510014008 | 43 | 319 | 7.0 | 16.0 | 0.00 | 0.01 | 0.00 | 97 | 1020.4 |
| 20260510013003 | 43 | 287 | 6.0 | 14.0 | 0.00 | 0.01 | 0.00 | 97 | 1020.3 |
| 20260510012003 | 43 | 302 | 6.0 | 13.0 | 0.00 | 0.01 | 0.00 | 97 | 1020.4 |
| 20260510011003 | 43 | 297 | 6.0 | 13.0 | 0.00 | 0.01 | 0.00 | 97 | 1020.6 |
| 20260510010003 | 43 | 300 | 5.0 | 12.0 | 0.00 | 0.01 | 0.00 | 97 | 1020.5 |
| 20260510005222 | 43 | 297 | 6.0 | 14.0 | 0.00 | 0.01 | 0.00 | 97 | 1020.5 |
| 20260510004008 | 44 | 305 | 6.0 | 13.0 | 0.00 | 0.01 | 0.00 | 97 | 1020.7 |
| 20260510003218 | 44 | 306 | 6.0 | 13.0 | 0.00 | 0.01 | 0.00 | 97 | 1020.5 |
| 20260510002003 | 44 | 306 | 5.0 | 13.0 | 0.00 | 0.01 | 0.00 | 97 | 1020.7 |
| 20260510001003 | 44 | 299 | 6.0 | 13.0 | 0.00 | 0.01 | 0.00 | 97 | 1020.6 |
| 20260510000008 | 44 | 302 | 6.0 | 13.0 | 0.00 | 0.01 | 0.00 | 97 | 1020.6 |
| 20260509235008 | 44 | 302 | 6.0 | 14.0 | 0.00 | 0.01 | 0.00 | 97 | 1020.8 |
| 20260509234008 | 45 | 302 | 6.0 | 12.0 | 0.00 | 0.01 | 0.00 | 96 | 1020.5 |
| 20260509233008 | 45 | 304 | 6.0 | 13.0 | 0.00 | 0.01 | 0.00 | 96 | 1020.5 |
| 20260509232008 | 45 | 304 | 6.0 | 16.0 | 0.00 | 0.01 | 0.00 | 96 | 1020.7 |
| 20260509231003 | 45 | 305 | 5.0 | 10.0 | 0.00 | 0.01 | 0.00 | 95 | 1020.7 |
| 20260509230003 | 46 | 304 | 6.0 | 11.0 | 0.00 | 0.01 | 0.00 | 95 | 1020.7 |
| 20260509225222 | 46 | 300 | 5.0 | 12.0 | 0.00 | 0.01 | 0.01 | 95 | 1020.6 |
| 20260509224008 | 46 | 301 | 5.0 | 11.0 | 0.00 | 0.01 | 0.01 | 95 | 1020.5 |
| 20260509223003 | 46 | 308 | 5.0 | 12.0 | 0.00 | 0.01 | 0.01 | 95 | 1020.7 |
| 20260509222003 | 46 | 305 | 5.0 | 10.0 | 0.00 | 0.01 | 0.01 | 94 | 1020.4 |
| 20260509221013 | 47 | 308 | 5.0 | 11.0 | 0.00 | 0.01 | 0.01 | 94 | 1020.2 |
| 20260509220008 | 47 | 298 | 5.0 | 13.0 | 0.00 | 0.01 | 0.01 | 94 | 1020.1 |
| 20260509215008 | 47 | 309 | 6.0 | 12.0 | 0.00 | 0.01 | 0.01 | 93 | 1020.1 |
| 20260509214008 | 47 | 304 | 6.0 | 13.0 | 0.00 | 0.01 | 0.01 | 93 | 1020.3 |
| 20260509213008 | 47 | 305 | 6.0 | 10.0 | 0.00 | 0.01 | 0.01 | 93 | 1020.4 |
| 20260509212003 | 48 | 303 | 5.0 | 11.0 | 0.00 | 0.01 | 0.01 | 93 | 1020.2 |
| 20260509211008 | 48 | 308 | 5.0 | 12.0 | 0.00 | 0.01 | 0.01 | 92 | 1020.3 |
| 20260509210003 | 48 | 301 | 5.0 | 10.0 | 0.00 | 0.01 | 0.01 | 92 | 1020.1 |
| 20260509205223 | 48 | 306 | 5.0 | 10.0 | 0.00 | 0.01 | 0.01 | 91 | 1020.2 |
| 20260509204009 | 48 | 302 | 5.0 | 10.0 | 0.00 | 0.01 | 0.01 | 90 | 1020.2 |
| 20260509203216 | 49 | 306 | 5.0 | 10.0 | 0.00 | 0.01 | 0.01 | 90 | 1020.1 |
| 20260509202008 | 49 | 302 | 5.0 | 10.0 | 0.00 | 0.01 | 0.01 | 89 | 1020.0 |
| 20260509201008 | 50 | 306 | 5.0 | 10.0 | 0.00 | 0.01 | 0.01 | 90 | 1019.9 |
| 20260509200013 | 50 | 308 | 5.0 | 9.0 | 0.01 | 0.01 | 0.01 | 92 | 1019.9 |
| 20260509195216 | 50 | 305 | 5.0 | 9.0 | 0.01 | 0.02 | 0.01 | 92 | 1019.7 |
| 20260509194018 | 50 | 311 | 5.0 | 8.0 | 0.01 | 0.02 | 0.01 | 91 | 1019.7 |
| 20260509193018 | 51 | 309 | 5.0 | 10.0 | 0.01 | 0.02 | 0.01 | 91 | 1019.7 |
| 20260509192003 | 51 | 307 | 6.0 | 10.0 | 0.01 | 0.02 | 0.01 | 92 | 1019.7 |
| 20260509191008 | 51 | 318 | 6.0 | 13.0 | 0.00 | 0.01 | 0.00 | 91 | 1019.4 |
| 20260509190008 | 52 | 321 | 6.0 | 10.0 | 0.00 | 0.01 | 0.00 | 91 | 1019.5 |
| 20260509185003 | 52 | 317 | 6.0 | 11.0 | 0.00 | 0.01 | 0.00 | 88 | 1019.3 |
| 20260509184008 | 53 | 323 | 6.0 | 11.0 | 0.00 | 0.01 | 0.00 | 85 | 1019.2 |
| 20260509183218 | 53 | 321 | 6.0 | 12.0 | 0.00 | 0.01 | 0.00 | 82 | 1019.2 |
| 20260509182008 | 53 | 320 | 6.0 | 11.0 | 0.00 | 0.01 | 0.00 | 79 | 1018.9 |
| 20260509181008 | 54 | 325 | 6.0 | 10.0 | 0.00 | 0.01 | 0.00 | 77 | 1018.8 |
| 20260509180218 | 54 | 322 | 6.0 | 11.0 | 0.00 | 0.01 | 0.00 | 77 | 1018.8 |
| 20260509175003 | 54 | 325 | 6.0 | 12.0 | 0.00 | 0.01 | 0.00 | 77 | 1018.6 |
| 20260509174008 | 54 | 323 | 6.0 | 11.0 | 0.00 | 0.01 | 0.00 | 79 | 1018.5 |
| 20260509173217 | 54 | 323 | 6.0 | 12.0 | 0.00 | 0.01 | 0.00 | 77 | 1018.6 |
| 20260509172003 | 55 | 323 | 7.0 | 13.0 | 0.00 | 0.01 | 0.00 | 79 | 1018.5 |
| 20260509171222 | 55 | 324 | 7.0 | 15.0 | 0.00 | 0.01 | 0.00 | 78 | 1018.5 |
| 20260509170008 | 56 | 324 | 6.0 | 14.0 | 0.00 | 0.01 | 0.00 | 76 | 1018.8 |
| 20260509165008 | 57 | 322 | 6.0 | 17.0 | 0.00 | 0.01 | 0.00 | 76 | 1018.5 |
| 20260509164217 | 57 | 322 | 6.0 | 17.0 | 0.00 | 0.01 | 0.00 | 74 | 1018.6 |
| 20260509163223 | 58 | 325 | 6.0 | 11.0 | 0.00 | 0.02 | 0.00 | 73 | 1018.4 |
| 20260509162003 | 58 | 322 | 6.0 | 12.0 | 0.00 | 0.02 | 0.00 | 70 | 1018.5 |
| 20260509161008 | 60 | 319 | 6.0 | 9.0 | 0.00 | 0.02 | 0.00 | 66 | 1018.5 |
| 20260509160008 | 62 | 309 | 6.0 | 11.0 | 0.00 | 0.02 | 0.00 | 65 | 1018.4 |
| 20260509155008 | 63 | 306 | 6.0 | 10.0 | 0.00 | 0.02 | 0.00 | 58 | 1018.2 |
| 20260509154217 | 62 | 302 | 6.0 | 9.0 | 0.00 | 0.02 | 0.00 | 59 | 1018.3 |
| 20260509153008 | 63 | 300 | 6.0 | 10.0 | 0.00 | 0.02 | 0.00 | 59 | 1018.4 |
| 20260509152003 | 64 | 308 | 7.0 | 10.0 | 0.00 | 0.02 | 0.00 | 56 | 1018.3 |
| 20260509151008 | 65 | 301 | 7.0 | 12.0 | 0.00 | 0.03 | 0.00 | 56 | 1018.4 |
| 20260509150003 | 65 | 304 | 7.0 | 11.0 | 0.00 | 0.05 | 0.00 | 60 | 1018.3 |
| 20260509145008 | 65 | 301 | 6.0 | 10.0 | 0.00 | 0.05 | 0.00 | 60 | 1018.4 |
| 20260509144008 | 63 | 302 | 6.0 | 9.0 | 0.00 | 0.05 | 0.00 | 62 | 1018.5 |
| 20260509143003 | 62 | 305 | 6.0 | 9.0 | 0.00 | 0.05 | 0.00 | 58 | 1018.4 |
| 20260509142222 | 62 | 300 | 6.0 | 9.0 | 0.00 | 0.05 | 0.00 | 62 | 1018.6 |
| 20260509141223 | 61 | 300 | 6.0 | 9.0 | 0.00 | 0.05 | 0.00 | 62 | 1018.4 |
| 20260509140226 | 63 | 301 | 6.0 | 11.0 | 0.00 | 0.05 | 0.00 | 59 | 1018.4 |
| 20260509135003 | 64 | 303 | 7.0 | 10.0 | 0.00 | 0.05 | 0.00 | 59 | 1018.5 |
| 20260509134008 | 63 | 299 | 6.0 | 9.0 | 0.00 | 0.05 | 0.00 | 62 | 1018.6 |
| 20260509133222 | 61 | 304 | 6.0 | 10.0 | 0.00 | 0.05 | 0.00 | 65 | 1018.4 |
| 20260509132003 | 63 | 302 | 7.0 | 10.0 | 0.00 | 0.05 | 0.00 | 60 | 1018.6 |
| 20260509131008 | 62 | 308 | 6.0 | 9.0 | 0.00 | 0.05 | 0.00 | 66 | 1018.9 |
| 20260509130008 | 60 | 298 | 5.0 | 10.0 | 0.00 | 0.05 | 0.00 | 63 | 1018.9 |
| 20260509125222 | 61 | 301 | 6.0 | 10.0 | 0.00 | 0.05 | 0.00 | 63 | 1018.8 |
| 20260509124003 | 63 | 302 | 6.0 | 10.0 | 0.00 | 0.05 | 0.00 | 59 | 1018.9 |
| 20260509123222 | 63 | 304 | 6.0 | 9.0 | 0.00 | 0.05 | 0.00 | 58 | 1018.8 |
| 20260509122218 | 62 | 300 | 6.0 | 9.0 | 0.00 | 0.05 | 0.00 | 61 | 1019.0 |
| 20260509121218 | 62 | 303 | 7.0 | 10.0 | 0.00 | 0.05 | 0.00 | 58 | 1019.2 |
| 20260509120003 | 63 | 297 | 6.0 | 11.0 | 0.00 | 0.05 | 0.00 | 57 | 1019.1 |
| 20260509115003 | 62 | 306 | 7.0 | 11.0 | 0.00 | 0.05 | 0.00 | 56 | 1019.1 |
| 20260509114221 | 63 | 306 | 7.0 | 12.0 | 0.00 | 0.05 | 0.00 | 54 | 1019.3 |
| 20260509113008 | 62 | 304 | 6.0 | 12.0 | 0.00 | 0.05 | 0.00 | 59 | 1019.4 |
| 20260509112221 | 63 | 304 | 6.0 | 12.0 | 0.00 | 0.05 | 0.00 | 60 | 1019.6 |
| 20260509111013 | 62 | 299 | 5.0 | 9.0 | 0.00 | 0.05 | 0.00 | 62 | 1019.5 |
| 20260509110003 | 61 | 304 | 6.0 | 9.0 | 0.00 | 0.05 | 0.00 | 64 | 1019.6 |
| 20260509105223 | 62 | 298 | 4.0 | 8.0 | 0.00 | 0.05 | 0.00 | 61 | 1019.5 |
| 20260509104008 | 61 | 306 | 6.0 | 9.0 | 0.00 | 0.05 | 0.00 | 65 | 1019.5 |
| 20260509103008 | 62 | 304 | 5.0 | 10.0 | 0.00 | 0.05 | 0.00 | 66 | 1019.5 |
| 20260509102003 | 59 | 311 | 6.0 | 11.0 | 0.00 | 0.05 | 0.00 | 71 | 1019.8 |
| 20260509101018 | 60 | 311 | 5.0 | 10.0 | 0.00 | 0.05 | 0.00 | 69 | 1019.9 |
| 20260509100217 | 59 | 308 | 5.0 | 9.0 | 0.00 | 0.05 | 0.00 | 75 | 1019.7 |
| 20260509095217 | 58 | 312 | 5.0 | 8.0 | 0.00 | 0.05 | 0.00 | 74 | 1019.6 |
| 20260509094223 | 57 | 311 | 6.0 | 10.0 | 0.00 | 0.05 | 0.00 | 79 | 1020.0 |
| 20260509093003 | 57 | 310 | 6.0 | 8.0 | 0.00 | 0.05 | 0.00 | 81 | 1019.8 |
| 20260509092438 | 56 | 310 | 5.0 | 9.0 | 0.00 | 0.05 | 0.00 | 81 | 1019.7 |
| 20260509091003 | 56 | 306 | 6.0 | 9.0 | 0.00 | 0.05 | 0.00 | 83 | 1019.7 |
| 20260509090004 | 55 | 311 | 5.0 | 12.0 | 0.00 | 0.05 | 0.00 | 83 | 1019.7 |
| 20260509085003 | 56 | 306 | 5.0 | 8.0 | 0.00 | 0.05 | 0.00 | 84 | 1019.8 |
| 20260509084008 | 55 | 308 | 5.0 | 9.0 | 0.00 | 0.05 | 0.00 | 87 | 1019.6 |
| 20260509083008 | 54 | 312 | 5.0 | 8.0 | 0.00 | 0.05 | 0.00 | 86 | 1019.6 |